This is the latest recevied weather packets stored in our database for station/object K0SNA. If no packets are shown the sender has not sent any weather packets the latest 10 day(s).
| Time | Temp. | Humidity | Pressure | Rain* | Wind** | Luminosity | Snow |
|---|---|---|---|---|---|---|---|
| 1777871813 | 11.67° C | 52% | 1002 hPa | 0 mm | - | 0 W/m² | - |
| 1777871510 | 12.22° C | 50% | 1002.1 hPa | 0 mm | - | 0 W/m² | - |
| 1777871206 | 11.67° C | 52% | 1002 hPa | 0 mm | - | 0 W/m² | - |
| 1777870903 | 11.11° C | 53% | 1002.1 hPa | 0 mm | - | 0 W/m² | - |
| 1777870601 | 11.67° C | 55% | 1002.2 hPa | 0 mm | - | 0 W/m² | - |
| 1777870301 | 11.67° C | 51% | 1002.2 hPa | 0 mm | - | 0 W/m² | - |
| 1777869999 | 11.11° C | 53% | 1002.4 hPa | 0 mm | - | 0 W/m² | - |
| 1777869695 | 11.67° C | 52% | 1002.3 hPa | 0 mm | - | 0 W/m² | - |
| 1777869392 | 11.11° C | 53% | 1002.4 hPa | 0 mm | - | 0 W/m² | - |
| 1777869090 | 11.11° C | 55% | 1002.7 hPa | 0 mm | - | 0 W/m² | - |
| 1777868787 | 11.11° C | 55% | 1002.7 hPa | 0 mm | - | 0 W/m² | - |
| 1777868483 | 11.11° C | 54% | 1002.9 hPa | 0 mm | - | 0 W/m² | - |
| 1777868179 | 11.67° C | 54% | 1002.9 hPa | 0 mm | - | 0 W/m² | - |
| 1777867876 | 11.67° C | 52% | 1002.9 hPa | 0 mm | - | 0 W/m² | - |
| 1777867573 | 11.67° C | 52% | 1003.1 hPa | 0 mm | - | 0 W/m² | - |
| 1777867269 | 11.67° C | 54% | 1003.3 hPa | 0 mm | - | 0 W/m² | - |
| 1777866966 | 11.67° C | 52% | 1003.3 hPa | 0 mm | - | 0 W/m² | - |
| 1777866663 | 11.67° C | 53% | 1003.4 hPa | 0 mm | - | 0 W/m² | - |
| 1777866361 | 11.67° C | 52% | 1003.5 hPa | 0 mm | - | 0 W/m² | - |
| 1777866057 | 12.22° C | 51% | 1003.7 hPa | 0 mm | - | 0 W/m² | - |
| 1777865755 | 12.22° C | 51% | 1003.7 hPa | 0 mm | - | 0 W/m² | - |
| 1777865452 | 12.22° C | 50% | 1003.9 hPa | 0 mm | - | 0 W/m² | - |
| 1777865149 | 12.78° C | 49% | 1003.7 hPa | 0 mm | - | 0 W/m² | - |
| 1777864846 | 12.78° C | 48% | 1003.9 hPa | 0 mm | - | 0 W/m² | - |
| 1777864543 | 12.78° C | 48% | 1004.1 hPa | 0 mm | - | 0 W/m² | - |
* Rain latest hour (hover to see other rain measurements)
** Current wind speed in m/s (hover to see current wind gust speed)